This is the latest recevied weather packets stored in our database for station/object KB3UMW-13. If no packets are shown the sender has not sent any weather packets the latest 10 day(s).
| Time | Temp. | Humidity | Pressure | Rain* | Wind** | Luminosity | Snow |
|---|---|---|---|---|---|---|---|
| 1778016775 | 20.56° C | 50% | 1011.3 hPa | 0 mm | - | 179 W/m² | - |
| 1778016470 | 20.56° C | 48% | 1011.3 hPa | 0 mm | - | 187 W/m² | - |
| 1778016168 | 20.56° C | 47% | 1011 hPa | 0 mm | - | 183 W/m² | - |
| 1778015864 | 20.56° C | 52% | 1011.2 hPa | 0 mm | - | 188 W/m² | - |
| 1778015562 | 21.11° C | 48% | 1010.8 hPa | 0 mm | - | 205 W/m² | - |
| 1778015258 | 21.11° C | 49% | 1011.1 hPa | 0 mm | - | 224 W/m² | - |
| 1778014955 | 21.11° C | 47% | 1010.8 hPa | 0 mm | - | 222 W/m² | - |
| 1778014652 | 21.11° C | 45% | 1011 hPa | 0 mm | - | 220 W/m² | - |
| 1778014350 | 21.11° C | 48% | 1011 hPa | 0 mm | - | 236 W/m² | - |
| 1778014046 | 21.11° C | 46% | 1011.2 hPa | 0 mm | - | 229 W/m² | - |
| 1778013745 | 21.67° C | 48% | 1011.1 hPa | 0 mm | - | 218 W/m² | - |
| 1778013441 | 21.67° C | 43% | 1011.1 hPa | 0 mm | - | 221 W/m² | - |
| 1778013138 | 21.67° C | 45% | 1011.2 hPa | 0 mm | - | 240 W/m² | - |
| 1778012834 | 22.22° C | 43% | 1011.2 hPa | 0 mm | - | 287 W/m² | - |
| 1778012530 | 21.67° C | 40% | 1011 hPa | 0 mm | - | 287 W/m² | - |
| 1778012227 | 22.78° C | 41% | 1011 hPa | 0 mm | - | 279 W/m² | - |
| 1778011925 | 22.22° C | 42% | 1011.1 hPa | 0 mm | - | 325 W/m² | - |
| 1778011623 | 22.78° C | 41% | 1011 hPa | 0 mm | - | 322 W/m² | - |
| 1778011319 | 22.22° C | 43% | 1011.1 hPa | 0 mm | - | 353 W/m² | - |
| 1778011015 | 22.78° C | 43% | 1011.3 hPa | 0 mm | - | 299 W/m² | - |
| 1778010713 | 22.78° C | 42% | 1011.2 hPa | 0 mm | - | 376 W/m² | - |
| 1778010410 | 22.78° C | 39% | 1011.3 hPa | 0 mm | - | 359 W/m² | - |
| 1778010106 | 22.78° C | 43% | 1011.2 hPa | 0 mm | - | 337 W/m² | - |
| 1778009802 | 22.78° C | 43% | 1011.4 hPa | 0 mm | - | 354 W/m² | - |
| 1778009499 | 22.78° C | 40% | 1011.2 hPa | 0 mm | - | 397 W/m² | - |
* Rain latest hour (hover to see other rain measurements)
** Current wind speed in m/s (hover to see current wind gust speed)